Weather History for KHFD - April, 2013

Change the Weather History Date:

Sunday, April 14, 2013

  Actual Average Record
Temperature  
Mean Temperature 46 °F -  
Max Temperature 54 °F 57 °F 86 °F (1977)
Min Temperature 37 °F 34 °F 24 °F (1963)
Degree Days  
Heating Degree Days 18    
Moisture  
Dew Point 31 °F    
Average Humidity 58    
Maximum Humidity 89    
Minimum Humidity 36    
Precipitation  
Precipitation 0.01 in - - ()
Sea Level Pressure  
Sea Level Pressure 30.07 in    
Wind  
Wind Speed 5 mph (NNW)    
Max Wind Speed 16 mph    
Max Gust Speed 23 mph    
Visibility 10 miles    
Events Rain    
Averages and records for this station are not official NWS values.
T = Trace of Precipitation, MM = Missing Value Source: NWS Daily Summary

Daily Weather History Graph

Daily Weather History Graph

Search for Another Location

Airport or City:

Trip Planner

Search our weather history database for the weather conditions in past years. The results will help you decide how hot, cold, wet, or windy it might be!

Date:

Astronomy

Apr. 14, 2013 Rise Set
Actual Time 6:11 AM EDT 7:30 PM EDT
Civil Twilight 5:42 AM EDT 7:59 PM EDT
Nautical Twilight 5:08 AM EDT 8:34 PM EDT
Astronomical Twilight 4:32 AM EDT 9:10 PM EDT
Moon 8:43 AM EDT (4/14) 11:44 PM EDT (4/14)
Length of Visible Light 14h 16m
Length of Day
13h 18m
Waxing Crescent, 17% of the Moon is Illuminated
Apr 14
Waxing Crescent
Apr 18
First Quarter
Apr 25
Full
May 2
Last Quarter
May 9
New

Hourly Weather History & Observations

Time (EDT) Temp. Windchill Dew Point Humidity Pressure Visibility Wind Dir Wind Speed Gust Speed Precip Events Conditions
12:53 AM 42.1 °F - 37.0 °F 82% 29.95 in 10.0 mi Calm Calm - N/A   Overcast
1:53 AM 44.1 °F 42.5 °F 37.9 °F 79% 29.95 in 10.0 mi South 3.5 mph - N/A   Overcast
2:53 AM 42.1 °F - 37.0 °F 82% 29.95 in 10.0 mi Calm Calm - N/A   Overcast
3:53 AM 43.0 °F - 39.0 °F 86% 29.95 in 10.0 mi Calm Calm - N/A   Mostly Cloudy
4:53 AM 42.1 °F - 39.0 °F 89% 29.95 in 10.0 mi Calm Calm - N/A   Mostly Cloudy
5:53 AM 41.0 °F 37.1 °F 37.0 °F 86% 29.97 in 10.0 mi North 5.8 mph - N/A   Mostly Cloudy
6:53 AM 41.0 °F - 36.0 °F 82% 30.00 in 10.0 mi Calm Calm - N/A   Mostly Cloudy
8:53 AM 48.0 °F - 35.1 °F 61% 30.02 in 10.0 mi North 4.6 mph - N/A   Scattered Clouds
9:53 AM 46.9 °F - 35.1 °F 63% 30.03 in 10.0 mi NNW 6.9 mph - N/A   Overcast
10:53 AM 46.9 °F - 34.0 °F 61% 30.04 in 10.0 mi Variable 4.6 mph - 0.00 in Rain Light Rain
11:53 AM 48.9 °F - 30.0 °F 48% 30.04 in 10.0 mi WNW 6.9 mph - 0.00 in   Overcast
12:53 PM 48.0 °F - 30.9 °F 52% 30.05 in 10.0 mi NNW 13.8 mph 19.6 mph N/A   Overcast
1:53 PM 52.0 °F - 30.0 °F 43% 30.05 in 10.0 mi NW 11.5 mph - 0.01 in   Mostly Cloudy
2:53 PM 52.0 °F - 27.0 °F 38% 30.06 in 10.0 mi NNW 16.1 mph 20.7 mph N/A   Overcast
3:53 PM 51.1 °F - 27.0 °F 39% 30.07 in 10.0 mi NW 15.0 mph 21.9 mph N/A   Mostly Cloudy
4:53 PM 51.1 °F - 27.0 °F 39% 30.10 in 10.0 mi NW 10.4 mph 23.0 mph N/A   Mostly Cloudy
5:53 PM 48.9 °F - 23.0 °F 36% 30.12 in 10.0 mi NNW 16.1 mph 23.0 mph N/A   Scattered Clouds
6:53 PM 48.0 °F - 23.0 °F 37% 30.14 in 10.0 mi NW 12.7 mph 23.0 mph N/A   Scattered Clouds
7:53 PM 46.0 °F 42.5 °F 21.9 °F 39% 30.18 in 10.0 mi NW 6.9 mph - N/A   Clear
8:53 PM 45.0 °F 40.6 °F 23.0 °F 42% 30.22 in 10.0 mi NW 8.1 mph - N/A   Clear
9:53 PM 44.1 °F 41.5 °F 23.0 °F 43% 30.23 in 10.0 mi NNW 4.6 mph - N/A   Clear
10:53 PM 43.0 °F 41.3 °F 23.0 °F 45% 30.23 in 10.0 mi NNW 3.5 mph - N/A   Clear
11:53 PM 37.9 °F - 28.0 °F 68% 30.24 in 10.0 mi Calm Calm - N/A   Clear